Tracking 20945 objects as of 9-Jul-2020
HD Live streaming from Space Station
objects crossing your sky now

SL-14 DEB

Track SL-14 DEB now!
10-day predictions


NORAD ID: 39973
Int'l Code: 1987-068CZ
Perigee: 767.3 km
Apogee: 808.9 km
Inclination: 83.0 °
Period: 100.5 minutes
Semi major axis: 7159 km
RCS: 0.0059 m2 (small)
Launch date: August 18, 1987
Source: Commonwealth of Independent States (former USSR) (CIS)
Launch site: PLESETSK MISSILE AND SPACE COMPLEX (PKMTR)

Note: This is SATELLITE DEBRIS
aabbcc
Your satellite tracking list
Your tracking list is empty




NASA's NSSDC Master Catalog

Two Line Element Set (TLE):
1 39973U 87068CZ  20190.85170657 +.00000487 +00000-0 +16993-3 0  9991
2 39973 083.0343 241.1648 0029033 095.0890 265.3614 14.33235598318246
Source of the keplerian elements: AFSPC